Date String (YYYY-MM-DD hh:mm:ss) UTC,Instrument flags,absolute air pressure of the measurement (hPa),sample flow rate (lpm),inlet stack bypass flow (lpm),air temperature of the measurement (°C),ambient temperature measured by the external sensor (°C),aerosol sample conditioner tube jacket temperature (°C),OPC LED temperature (°C),internal box temperature (°C),relative humidity of the measurement (%),span deviation,mass concentration of particles derived from Lorenz-Mie calculation of OPC scattering (μg/m³),mass concentration of particles derived from Lorenz-Mie calculation of OPC scattering (μg/m³),mass concentration of particles derived from Lorenz-Mie calculation of OPC scattering (μg/m³)
DateTimeUTC,F1_M11,P_M11,Q1_M11,Q2_M11,T1_M11,T2_M11,T3_M11,T4_M11,T5_M11,U1_M11,ZSPAN_M11,X2_M11,X0_M11,X1_M11
2024-01-31 12:00:00,SystemResetWarning,0831.0,5.00,000.00,021.8,020.7,000.0,030.2,023.2,09.6,0000.0,0001.43,0002.66,0001.23
2024-01-31 12:01:00,SystemResetWarning,0831.0,4.99,000.00,021.8,020.7,000.0,030.2,023.2,09.5,0000.0,0001.29,0002.45,0001.12
2024-01-31 12:02:00,SystemResetWarning,0831.0,5.00,000.00,021.8,020.6,000.0,030.2,023.2,09.4,0000.0,0001.22,0002.38,0001.06
2024-01-31 12:03:00,SystemResetWarning,0831.1,5.00,000.00,021.8,020.6,000.0,030.2,023.2,09.4,0000.0,0001.17,0003.42,0001.02
2024-01-31 12:04:00,SystemResetWarning,0831.0,5.00,000.00,021.8,020.6,000.0,030.2,023.1,09.4,0000.0,0001.14,0003.39,0000.99
2024-01-31 12:05:00,SystemResetWarning,0831.1,5.00,000.00,021.8,020.6,000.0,030.2,023.1,09.5,0000.0,0001.11,0003.25,0000.95
2024-01-31 12:06:00,SystemResetWarning,0831.0,5.00,000.00,021.8,020.6,000.0,030.1,023.1,09.6,0000.0,0001.05,0003.12,0000.92
2024-01-31 12:07:00,SystemResetWarning,0831.0,5.00,000.00,021.8,020.6,000.0,030.1,023.1,09.5,0000.0,0001.01,0003.40,0000.89
2024-01-31 12:08:00,SystemResetWarning,0831.0,5.00,000.00,021.8,020.6,000.0,030.1,023.1,09.5,0000.0,0001.00,0003.22,0000.88
2024-01-31 12:09:00,SystemResetWarning,0831.0,5.00,000.00,021.8,020.6,000.0,030.1,023.1,09.6,0000.0,0001.02,0003.15,0000.88
2024-01-31 12:10:00,SystemResetWarning,0831.1,5.01,000.00,021.8,020.6,000.0,030.1,023.1,09.7,0000.0,0001.06,0003.26,0000.89
2024-01-31 12:11:00,SystemResetWarning,0831.1,4.99,000.00,021.8,020.6,000.0,030.1,023.1,10.1,0000.0,0001.10,0003.46,0000.90
2024-01-31 12:12:00,SystemResetWarning,0831.1,5.00,000.00,021.8,020.6,000.0,030.1,023.1,10.2,0000.0,0001.16,0003.55,0000.94
2024-01-31 12:13:00,SystemResetWarning,0831.1,5.00,000.00,021.8,020.6,000.0,030.1,023.1,09.9,0000.0,0001.22,0003.61,0000.97
2024-01-31 12:14:00,SystemResetWarning,0831.0,5.00,000.00,021.7,020.6,000.0,030.1,023.1,09.9,0000.0,0001.26,0002.83,0001.00
2024-01-31 12:15:00,SystemResetWarning,0831.0,5.00,000.00,021.7,020.6,000.0,030.1,023.1,09.8,0000.0,0001.26,0002.51,0001.00
2024-01-31 12:16:00,SystemResetWarning,0830.9,5.00,000.00,021.7,020.6,000.0,030.1,023.1,09.8,0000.0,0001.29,0002.54,0001.02
2024-01-31 12:17:00,SystemResetWarning,0831.0,4.99,000.00,021.7,020.6,000.0,030.1,023.1,09.8,0000.0,0001.30,0002.51,0001.02
2024-01-31 12:18:00,SystemResetWarning,0830.9,5.00,000.00,021.7,020.6,000.0,030.1,023.1,09.7,0000.0,0001.31,0002.79,0001.02
2024-01-31 12:19:00,SystemResetWarning,0830.9,5.00,000.00,021.7,020.6,000.0,030.1,023.1,09.9,0000.0,0001.34,0003.12,0001.02
2024-01-31 12:20:00,SystemResetWarning,0831.0,4.99,000.00,021.7,020.6,000.0,030.1,023.1,10.0,0000.0,0001.31,0003.04,0001.00
2024-01-31 12:21:00,SystemResetWarning,0831.0,5.00,000.00,021.7,020.6,000.0,030.1,023.1,10.1,0000.0,0001.29,0003.03,0001.00
2024-01-31 12:22:00,SystemResetWarning,0831.0,5.01,000.00,021.7,020.6,000.0,030.1,023.1,10.0,0000.0,0001.26,0002.86,0001.00
2024-01-31 12:23:00,SystemResetWarning,0831.0,5.01,000.00,021.7,020.6,000.0,030.1,023.1,10.1,0000.0,0001.21,0002.75,0000.96
2024-01-31 12:24:00,SystemResetWarning,0830.9,5.00,000.00,021.7,020.6,000.0,030.1,023.1,10.2,0000.0,0001.17,0002.68,0000.92
2024-01-31 12:25:00,SystemResetWarning,0831.0,5.01,000.00,021.7,020.6,000.0,030.1,023.1,10.1,0000.0,0001.07,0002.42,0000.88
2024-01-31 12:26:00,SystemResetWarning,0831.0,5.00,000.00,021.7,020.6,000.0,030.1,023.1,10.1,0000.0,0001.04,0002.37,0000.86
2024-01-31 12:27:00,SystemResetWarning,0831.0,4.99,000.00,021.7,020.6,000.0,030.1,023.1,10.1,0000.0,0001.00,0002.28,0000.83
2024-01-31 12:28:00,SystemResetWarning,0831.0,4.99,000.00,021.7,020.6,000.0,030.1,023.1,10.1,0000.0,0000.99,0002.27,0000.82
2024-01-31 12:29:00,SystemResetWarning,0831.0,5.01,000.00,021.7,020.6,000.0,030.0,023.1,10.2,0000.0,0000.98,0001.99,0000.81
2024-01-31 12:30:00,SystemResetWarning,0831.0,5.01,000.00,021.7,020.6,000.0,030.0,023.1,10.5,0000.0,0000.94,0001.37,0000.81
2024-01-31 12:31:00,SystemResetWarning,0831.1,5.00,000.00,021.7,020.6,000.0,030.0,023.0,10.6,0000.0,0000.92,0001.37,0000.79
2024-01-31 12:32:00,SystemResetWarning,0831.1,4.99,000.00,021.7,020.6,000.0,030.0,023.0,10.7,0000.0,0000.90,0001.29,0000.77
2024-01-31 12:33:00,SystemResetWarning,0831.1,5.00,000.00,021.7,020.5,000.0,030.0,023.0,10.8,0000.0,0000.87,0001.21,0000.75
2024-01-31 12:34:00,SystemResetWarning,0831.1,5.00,000.00,021.7,020.5,000.0,030.0,023.0,10.8,0000.0,0000.88,0002.72,0000.74
2024-01-31 12:35:00,SystemResetWarning,0831.0,5.00,000.00,021.7,020.5,000.0,030.0,023.0,10.9,0000.0,0000.88,0003.08,0000.76
2024-01-31 12:36:00,SystemResetWarning,0831.1,5.00,000.00,021.7,020.5,000.0,030.0,023.0,11.0,0000.0,0000.95,0003.22,0000.80
2024-01-31 12:37:00,SystemResetWarning,0831.0,5.00,000.00,021.7,020.6,000.0,030.0,023.0,11.1,0000.0,0001.05,0003.36,0000.88
2024-01-31 12:38:00,SystemResetWarning,0831.0,5.00,000.00,021.7,020.6,000.0,030.0,023.1,11.1,0000.0,0001.11,0003.42,0000.94
2024-01-31 12:39:00,SystemResetWarning,0831.1,5.00,000.00,021.7,020.6,000.0,030.0,023.1,11.3,0000.0,0001.15,0003.52,0000.98
2024-01-31 12:40:00,SystemResetWarning,0831.0,5.00,000.00,021.7,020.6,000.0,030.0,023.0,11.4,0000.0,0001.23,0004.05,0001.03
2024-01-31 12:41:00,SystemResetWarning,0831.0,5.00,000.00,021.7,020.6,000.0,030.0,023.1,11.0,0000.0,0001.27,0004.05,0001.07
2024-01-31 12:42:00,SystemResetWarning,0831.0,4.99,000.00,021.7,020.6,000.0,030.0,023.1,10.9,0000.0,0001.32,0004.07,0001.12
2024-01-31 12:43:00,SystemResetWarning,0831.0,4.99,000.00,021.7,020.6,000.0,030.0,023.0,10.9,0000.0,0001.35,0004.74,0001.16
2024-01-31 12:44:00,SystemResetWarning,0831.0,5.00,000.00,021.6,020.6,000.0,030.0,023.0,10.8,0000.0,0001.43,0004.96,0001.21
2024-01-31 12:45:00,SystemResetWarning,0831.0,5.00,000.00,021.7,020.6,000.0,030.0,023.0,11.1,0000.0,0001.53,0004.16,0001.25
2024-01-31 12:46:00,SystemResetWarning,0831.0,5.00,000.00,021.6,020.6,000.0,030.0,023.1,11.1,0000.0,0001.65,0003.60,0001.29
2024-01-31 12:47:00,SystemResetWarning,0831.0,5.01,000.00,021.7,020.6,000.0,030.0,023.1,11.1,0000.0,0001.69,0003.67,0001.33
2024-01-31 12:48:00,SystemResetWarning,0831.0,5.00,000.00,021.7,020.6,000.0,030.0,023.1,11.0,0000.0,0001.71,0003.77,0001.33
2024-01-31 12:49:00,SystemResetWarning,0830.9,4.99,000.00,021.7,020.7,000.0,030.0,023.1,11.0,0000.0,0001.73,0003.79,0001.35
2024-01-31 12:50:00,SystemResetWarning,0831.0,4.99,000.00,021.7,020.7,000.0,030.0,023.1,10.9,0000.0,0001.77,0003.88,0001.38
2024-01-31 12:51:00,SystemResetWarning,0830.9,5.00,000.00,021.7,020.7,000.0,030.0,023.1,10.8,0000.0,0001.76,0003.40,0001.39
2024-01-31 12:52:00,SystemResetWarning,0830.9,5.00,000.00,021.7,020.7,000.0,030.0,023.1,10.8,0000.0,0001.79,0003.41,0001.41
2024-01-31 12:53:00,SystemResetWarning,0831.0,5.00,000.00,021.7,020.8,000.0,030.0,023.1,10.8,0000.0,0001.84,0003.47,0001.45
2024-01-31 12:54:00,SystemResetWarning,0831.0,5.00,000.00,021.7,020.8,000.0,030.0,023.1,10.8,0000.0,0001.90,0003.07,0001.49
2024-01-31 12:55:00,SystemResetWarning,0831.0,5.00,000.00,021.7,020.8,000.0,030.0,023.1,10.6,0000.0,0001.95,0003.02,0001.53
2024-01-31 12:56:00,SystemResetWarning,0831.0,4.99,000.00,021.7,020.8,000.0,030.0,023.1,10.3,0000.0,0002.00,0003.68,0001.59
2024-01-31 12:57:00,SystemResetWarning,0831.1,4.99,000.00,021.7,020.8,000.0,030.0,023.1,10.6,0000.0,0002.04,0003.64,0001.68
2024-01-31 12:58:00,SystemResetWarning,0831.1,5.00,000.00,021.7,020.8,000.0,030.0,023.1,10.8,0000.0,0002.14,0003.74,0001.79
2024-01-31 12:59:00,SystemResetWarning,0831.1,5.01,000.00,021.7,020.8,000.0,030.0,023.1,11.0,0000.0,0002.27,0004.26,0001.89
